Regional Weather Roundup
Issued by NWS

Home | Current Version | Previous Version | Text Only | Print | Product List | Glossary Off
Versions: 1 2 3 4 5 6 7 8 9 10 11 12 13 14 15 16 17 18 19 20 21 22 23 24 25 26 27 28 29 30 31 32 33 34 35 36 37 38 39

000
ASUS45 KBOU 222307
RWRCO

WEATHER ROUNDUP FOR COLORADO
NATIONAL WEATHER SERVICE DENVER/BOULDER CO
500 PM MDT WED OCT 22 2014

NOTE: "FAIR" INDICATES FEW OR NO CLOUDS BELOW 12000 FEET WITH NO
SIGNIFICANT WEATHER AND/OR OBSTRUCTIONS TO VISIBILITY.

COZ001>005-013-030-031-230000-
...NORTHWEST COLORADO...

CITY           SKY/WX    TMP DP  RH WIND       PRES   REMARKS
CRAIG          SUNNY     58  35  42 W6        30.19R
HAYDEN         MOSUNNY   55  32  41 NW13      30.19S
MEEKER         MOSUNNY   59  35  40 W6        30.18R
MOUNT WERNER   NOT AVBL
STEAMBOAT SPGS MOSUNNY   55  31  40 W10       30.20S
WALDEN         SUNNY     52  23  32 SW12      30.22R
$$

COZ006>008-011-230000-
...WEST CENTRAL VALLEYS...

CITY           SKY/WX    TMP DP  RH WIND       PRES   REMARKS
GRAND JUNCTION MOSUNNY   68  41  37 N6        30.10S
MONTROSE       CLOUDY    65  39  38 N8        30.16S
EAGLE          PTSUNNY   52  39  62 NW7       30.22R
RIFLE          CLOUDY    61  42  49 W8        30.15S
DELTA          MOSUNNY   72  37  27 SW9       30.12S
NUCLA          MOSUNNY   66  34  30 NW8       30.19R
$$

COZ017>023-064>068-230000-
...SOUTHWEST COLORADO...

CITY           SKY/WX    TMP DP  RH WIND       PRES   REMARKS
DURANGO        MOSUNNY   62  41  46 SW9       30.19S
CORTEZ         SUNNY     68  34  28 NW10      30.17S
PAGOSA SPRINGS MOSUNNY   58  38  47 E3        30.26S
TELLURIDE      CLOUDY    52  32  45 W5        30.33R
WOLF CREEK PAS PTSUNNY   34  32  93 SW17G28     N/A  WCI  23
$$

COZ009-010-012-014-032>034-037-058>063-230000-
...CENTRAL COLORADO...

CITY           SKY/WX    TMP DP  RH WIND       PRES   REMARKS
ASPEN          CLOUDY    48  39  71 CALM      30.25S
BUENA VISTA    MOSUNNY   53  33  47 W12       30.23F
COPPER MTN     PTSUNNY   37  30  75 SW9       30.41R
BERTHOUD PASS  FOG       28  27  93 W17G24    30.41S VSB 1/2 WCI  16
COTTONWOOD PAS LGT RAIN  46  32  57 W10G18    30.32R
GUNNISON       MOSUNNY   54  36  50 CALM      30.24S
KREMMLING      CLOUDY    52  36  54 S3          N/A
LEADVILLE      CLOUDY    40  30  67 N10       30.31S
MONARCH PASS   PTSUNNY   34  32  93 W32G40    30.49F WCI  20
SALIDA         CLOUDY    59  36  41 W10       30.29S
SUNLIGHT       DRIZZLE   37  36  93 NW3       30.38S
WILKERSON PASS NOT AVBL
$$

COZ069>075-230000-
...SAN LUIS VALLEY/SANGRE DE CRISTO MOUNTAINS...

CITY           SKY/WX    TMP DP  RH WIND       PRES   REMARKS
ALAMOSA        CLOUDY    63  31  30 W14       30.19S
LA VETA PASS   PTSUNNY   48  27  43 CALM      30.33S
SAGUACHE       LGT RAIN  55  37  50 N5        30.23S
$$

COZ035-036-038>040-230000-
...NORTHERN COLORADO FRONT RANGE...

CITY           SKY/WX    TMP DP  RH WIND       PRES   REMARKS
DENVER INTL AP PTSUNNY   65  36  34 NW8       30.08R
DMNS CITY PARK   N/A     65  34  31 NE2G13    30.08R
AURORA         PTSUNNY   65  38  37 E9        30.10R
FRONT RANGE AP NOT AVBL
ERIE MUNI ARPT CLOUDY    64  36  34 NW10      30.07S
BOULDER MUN AP CLOUDY    64  36  34 SW15G22   30.07S
CENTENNIAL     PTSUNNY   65  37  35 NE9       30.09R
BROOMFIELD     DRIZZLE   64  37  36 N3        30.10S
FORT COLLINS   MOSUNNY   66  37  34 S7        30.06S
LONGMONT       MOSUNNY   65  37  36 SW10      30.08S
$$

COZ041-046-047-076>085-087-088-230000-
...PIKES PEAK/PALMER DIVIDE AND SOUTHERN FOOTHILLS...

CITY           SKY/WX    TMP DP  RH WIND       PRES   REMARKS
COLO. SPRINGS  PTSUNNY   64  37  36 NE6       30.13R
A. F. ACADEMY  PTSUNNY   57  44  62 N2        30.13S
ELLICOTT       PTSUNNY   64  37  36 CALM      30.11S
FALCON         PTSUNNY   56  39  54 E3        30.16F
FORT CARSON    PTSUNNY   63  41  44 NW8       30.09S
LIMON          LGT RAIN  57  44  62 W9G22     30.11R
MONUMENT HILL  PTSUNNY   55  36  47 E7        30.15S
TRINIDAD       MOSUNNY   70  36  28 E6        30.09S
$$

COZ042>045-048>051-090-091-230000-
...NORTHEAST COLORADO...

CITY           SKY/WX    TMP DP  RH WIND       PRES   REMARKS
GREELEY ARPT   MOSUNNY   70  36  28 SW14      30.05S
AKRON          SUNNY     66  36  32 E9        30.06S
BURLINGTON     SUNNY     71  39  31 N8        30.05R
WRAY           CLEAR     71  37  28 MISG      30.04S
STERLING       SUNNY     70  39  32 E7        30.04R
HOLYOKE        CLEAR     70  32  24 N7        30.05S
FORT MORGAN    MOSUNNY   67  37  33 E5        30.06S
$$

COZ086-089-092>099-230000-
...SOUTHEAST COLORADO...

CITY           SKY/WX    TMP DP  RH WIND       PRES   REMARKS
PUEBLO         MOSUNNY   72  37  28 SE10      30.02S
LA JUNTA       SUNNY     74  41  30 SE7       30.03R
LAMAR          SUNNY     74  44  34 E8        30.00S
SPRINGFIELD      N/A     71  43  36 VRB7      30.05R
$$



USA.gov is the U.S. government's official web portal to all federal, state and local government web resources and services.